Cranbrook, British Columbia

10:05 AM MST on December 18, 2017 (GMT -0700)
Cranbrook

Weather History for CYXC - October, 2012

Change the Weather History Date:

Saturday, October 27, 2012

  Actual Average Record
Temperature  
Mean Temperature 34 °F -  
Max Temperature 39 °F 36 °F 59 °F (2003)
Min Temperature 30 °F 23 °F 17 °F (2007)
Degree Days  
Heating Degree Days 30    
Moisture  
Dew Point 32 °F    
Average Humidity 90    
Maximum Humidity 100    
Minimum Humidity 75    
Precipitation  
Precipitation 0.02 in 0.04 in - ()
Sea Level Pressure  
Sea Level Pressure 30.06 in    
Wind  
Wind Speed 4 mph ()    
Max Wind Speed 9 mph    
Max Gust Speed -    
Visibility 13.9 miles    
Events Rain , Snow    
Averages and records for this station are not official NWS values.
T = Trace of Precipitation, MM = Missing Value Source: Averaged Metar Reports

Daily Weather History Graph

Daily Weather History Graph

Search for Another Location

Airport or City:

Trip Planner

Search our weather history database for the weather conditions in past years. The results will help you decide how hot, cold, wet, or windy it might be!

Date:

Astronomy

Oct. 27, 2012 Rise Set
Actual Time 8:24 AM MDT 6:28 PM MDT
Civil Twilight 7:51 AM MDT 7:01 PM MDT
Nautical Twilight 7:13 AM MDT 7:39 PM MDT
Astronomical Twilight 6:36 AM MDT 8:16 PM MDT
Moon 5:21 PM MDT (10/27) 6:16 AM MDT (10/27)
Length of Visible Light 11h 10m
Length of Day
10h 03m
Waxing Gibbous, 96% of the Moon is Illuminated
Oct 27
Waxing Gibbous
Oct 29
Full
Nov 6
Last Quarter
Nov 13
New
Nov 20
First Quarter

Hourly Weather History & Observations

Time (MDT) Temp. Windchill Dew Point Humidity Pressure Visibility Wind Dir Wind Speed Gust Speed Precip Events Conditions
12:00 AM 33 °F - 30 °F 85% 30.12 in 15 mi SSE 5.8 mph - - Snow Light Snow
12:00 AM 33.8 °F 28.6 °F 30.2 °F 87% 30.12 in 15.0 mi SSE 5.8 mph - N/A Snow Light Snow
1:00 AM 33.8 °F 29.6 °F 30.2 °F 87% 30.12 in 10.0 mi ESE 4.6 mph - N/A Snow Light Snow
1:35 AM - - - N/A% - 15.0 mi SE 5.8 mph - N/A   Overcast
2:00 AM 32.0 °F 26.4 °F 30.2 °F 93% 30.10 in 12.0 mi SSE 5.8 mph - N/A   Mostly Cloudy
3:00 AM 32.0 °F - 30.2 °F 93% 30.09 in 15.0 mi SSW 2.3 mph - N/A   Overcast
4:00 AM 32.0 °F - 30.2 °F 93% 30.09 in 15.0 mi West 2.3 mph - N/A   Overcast
4:14 AM - - - N/A% - 12.0 mi Calm Calm - N/A   Unknown
5:00 AM 32.0 °F 28.7 °F 30.2 °F 93% 30.07 in 10.0 mi SSW 3.5 mph - N/A Snow Light Snow
6:00 AM 31 °F - 30 °F 96% 30.07 in 10 mi West 2.3 mph - - Snow Light Snow
6:00 AM 32.0 °F - 30.2 °F 93% 30.07 in 10.0 mi West 2.3 mph - N/A Snow Light Snow
7:49 AM - - - N/A% - 8.0 mi West 2.3 mph - N/A   Overcast
8:00 AM 32.0 °F - 30.2 °F 93% 30.08 in 10.0 mi West 2.3 mph - N/A   Mostly Cloudy
9:00 AM 30.2 °F - 30.2 °F 100% 30.09 in 10.0 mi Calm Calm - N/A   Mostly Cloudy
10:00 AM 32.0 °F - 30.2 °F 93% 30.09 in 15.0 mi Calm Calm - N/A   Mostly Cloudy
11:00 AM 33.8 °F - 32.0 °F 93% 30.09 in 15.0 mi West 2.3 mph - N/A   Mostly Cloudy
12:00 PM 36 °F - 32 °F 81% 30.08 in 19 mi Calm Calm - -   Partly Cloudy
12:00 PM 35.6 °F - 32.0 °F 87% 30.08 in 20.0 mi Calm Calm - N/A   Mostly Cloudy
1:00 PM 37.4 °F 31.4 °F 32.0 °F 81% 30.08 in 25.0 mi ESE 8.1 mph - N/A   Overcast
2:00 PM 39.2 °F 35.9 °F 32.0 °F 75% 30.07 in 25.0 mi East 4.6 mph - N/A   Overcast
3:00 PM 37.4 °F 32.1 °F 32.0 °F 81% 30.05 in 15.0 mi SE 6.9 mph - N/A   Overcast
3:17 PM - - - N/A% - 15.0 mi SE 6.9 mph - N/A Rain Light Rain Showers
3:19 PM - - - N/A% - 15.0 mi SE 6.9 mph - N/A Rain Light Rain Showers
4:00 PM 39.2 °F 33.0 °F 33.8 °F 81% 30.04 in 15.0 mi ESE 9.2 mph - N/A Rain Light Rain Showers
5:00 PM 37.4 °F 31.4 °F 33.8 °F 87% 30.04 in 15.0 mi ESE 8.1 mph - N/A Rain Light Rain Showers
6:00 PM 36 °F - 34 °F 90% 30.02 in 15 mi SE 6.9 mph - - Rain Light Rain Showers
6:00 PM 35.6 °F 29.2 °F 33.8 °F 93% 30.02 in 15.0 mi ESE 8.1 mph - N/A Rain Light Rain Showers
7:00 PM 35.6 °F 29.2 °F 33.8 °F 93% 30.01 in 15.0 mi ESE 8.1 mph - N/A Rain Light Rain Showers
8:00 PM 35.6 °F 30.7 °F 33.8 °F 93% 29.99 in 15.0 mi ESE 5.8 mph - N/A   Overcast
9:00 PM 35.6 °F 29.9 °F 33.8 °F 93% 29.98 in 15.0 mi ESE 6.9 mph - N/A   Overcast
9:35 PM 35.6 °F 29.9 °F 33.8 °F 93% - 15.0 mi SE 6.9 mph - N/A Rain Light Rain
10:00 PM 35.6 °F 30.7 °F 33.8 °F 93% 29.97 in 15.0 mi SSE 5.8 mph - N/A Rain Light Rain
11:00 PM 35.6 °F - 33.8 °F 93% 29.96 in 15.0 mi SSW 2.3 mph - N/A Rain Light Rain